Philpott Lake Weather Center

Moon Phase Calendar



Philpott Lake Water Level
Online Cameras

 


      

Current Conditions in Bassett
9/24/2021 2:30:10 PM

70°F
Feels Like 68
Clear
Humidity
43%
Pressure
30.06"
Wind
5.8 mph (E)
Dew Point
46°F
UV Index
5/10 (Moderate)
Visibility
6 mi

Hourly Forecast

Date & Time Fri, Sep 24
2:00 PM
Fri, Sep 24
3:00 PM
Fri, Sep 24
4:00 PM
Fri, Sep 24
5:00 PM
Fri, Sep 24
6:00 PM
Fri, Sep 24
7:00 PM
Fri, Sep 24
8:00 PM
Fri, Sep 24
9:00 PM
Fri, Sep 24
10:00 PM
Fri, Sep 24
11:00 PM
Sat, Sep 25
12:00 AM
Sat, Sep 25
1:00 AM
Sat, Sep 25
2:00 AM
Sat, Sep 25
3:00 AM
Sat, Sep 25
4:00 AM
Sat, Sep 25
5:00 AM
Sat, Sep 25
6:00 AM
Sat, Sep 25
7:00 AM
Sat, Sep 25
8:00 AM
Sat, Sep 25
9:00 AM
Sat, Sep 25
10:00 AM
Sat, Sep 25
11:00 AM
Sat, Sep 25
12:00 PM
Sat, Sep 25
1:00 PM
Sat, Sep 25
2:00 PM
Sat, Sep 25
3:00 PM
Sat, Sep 25
4:00 PM
Sat, Sep 25
5:00 PM
Sat, Sep 25
6:00 PM
Sat, Sep 25
7:00 PM
Sat, Sep 25
8:00 PM
Sat, Sep 25
9:00 PM
Sat, Sep 25
10:00 PM
Sat, Sep 25
11:00 PM
Sun, Sep 26
12:00 AM
Sun, Sep 26
1:00 AM
Sun, Sep 26
2:00 AM
Sun, Sep 26
3:00 AM
Sun, Sep 26
4:00 AM
Sun, Sep 26
5:00 AM
Sun, Sep 26
6:00 AM
Sun, Sep 26
7:00 AM
Sun, Sep 26
8:00 AM
Sun, Sep 26
9:00 AM
Sun, Sep 26
10:00 AM
Sun, Sep 26
11:00 AM
Sun, Sep 26
12:00 PM
Sun, Sep 26
1:00 PM
Condition
Clear

Clear

Clear

Clear

Clear

Clear

Clear

Clear

Clear

Clear

Clear

Clear

Clouds

Clear

Clouds

Clouds

Clouds

Clouds

Clouds

Clouds

Clouds

Clouds

Clouds

Clouds

Clouds

Clouds

Clouds

Clouds

Clouds

Clouds

Clouds

Clear

Clear

Clear

Clear

Clear

Clear

Clear

Clear

Clear

Clear

Clear

Clear

Clear

Clear

Clear

Clear

Clear
Temperature 71°F70°F71°F71°F70°F63°F58°F56°F55°F55°F54°F53°F53°F52°F51°F51°F51°F50°F53°F59°F63°F67°F71°F73°F75°F76°F77°F75°F71°F63°F60°F59°F58°F57°F57°F58°F57°F56°F54°F54°F53°F52°F53°F60°F64°F68°F71°F73°F
Feels Like 69°F69°F69°F70°F68°F61°F56°F54°F54°F53°F52°F51°F51°F50°F49°F49°F48°F48°F51°F57°F62°F66°F69°F72°F73°F74°F75°F74°F70°F62°F59°F57°F56°F56°F56°F57°F56°F55°F54°F53°F52°F51°F53°F59°F63°F66°F69°F72°F
Cloudiness 1%1%1%1%0%0%0%0%0%0%0%2%14%4%11%30%28%27%27%33%66%78%83%86%88%100%64%43%32%26%24%3%1%1%1%2%2%0%0%0%0%0%1%4%7%7%6%5%
Visibility 6 mi6 mi6 mi6 mi6 mi6 mi6 mi6 mi6 mi6 mi6 mi6 mi6 mi6 mi6 mi6 mi6 mi6 mi6 mi6 mi6 mi6 mi6 mi6 mi6 mi6 mi6 mi6 mi6 mi6 mi6 mi6 mi6 mi6 mi6 mi6 mi6 mi6 mi6 mi6 mi6 mi6 mi6 mi6 mi6 mi6 mi6 mi6 mi
Precipitation 0%0%0%0%0%0%0%0%0%0%0%0%0%0%0%0%0%0%0%0%0%0%0%0%0%0%0%0%0%0%0%0%0%0%0%0%0%0%0%0%0%0%0%0%0%0%0%0%
Humidity 39%42%39%38%47%56%61%62%64%65%65%65%65%66%66%67%67%67%67%56%50%43%38%34%33%31%29%33%45%56%55%57%62%69%73%75%80%83%87%90%92%94%90%74%59%47%39%33%
Dew Point 44°F46°F45°F44°F48°F47°F43°F43°F42°F42°F42°F41°F41°F40°F40°F40°F39°F39°F41°F43°F44°F44°F43°F43°F43°F43°F41°F43°F47°F46°F43°F43°F44°F46°F48°F49°F50°F50°F50°F50°F50°F49°F50°F51°F49°F46°F44°F41°F
Pressure 30.06"30.06"30.06"30.06"30.03"30.06"30.09"30.09"30.12"30.12"30.12"30.09"30.09"30.09"30.09"30.09"30.09"30.09"30.09"30.09"30.09"30.09"30.06"30.03"30"29.97"29.97"29.97"29.97"30"30"30.03"30.06"30.06"30.06"30.06"30.06"30.06"30.06"30.09"30.09"30.12"30.12"30.12"30.12"30.12"30.12"30.09"
Wind Speed 2.2 mph1.8 mph1.7 mph1.9 mph2.8 mph1.5 mph1.2 mph2.4 mph2.8 mph3.1 mph2.8 mph2.7 mph3 mph2.5 mph2.5 mph2.5 mph2.4 mph2.5 mph2.2 mph0.5 mph1.6 mph3.1 mph4.5 mph5.3 mph4.8 mph4.7 mph6.1 mph7 mph5 mph4 mph4.4 mph5 mph5.8 mph6 mph5.9 mph6.4 mph5.8 mph5.5 mph5.4 mph5.3 mph4.9 mph4.6 mph4.4 mph6.3 mph6.7 mph6.7 mph6.5 mph6.4 mph
Wind
Direction
41°
NE
49°
NE
50°
NE
57°
ENE
97°
E
108°
ESE
288°
WNW
298°
WNW
290°
WNW
291°
WNW
291°
WNW
302°
WNW
310°
NW
318°
NW
322°
NW
316°
NW
314°
NW
307°
NW
303°
WNW
253°
WSW
225°
SW
209°
SSW
209°
SSW
220°
SW
256°
WSW
293°
WNW
315°
NW
329°
NNW
328°
NNW
318°
NW
305°
NW
300°
WNW
306°
NW
313°
NW
313°
NW
315°
NW
312°
NW
309°
NW
309°
NW
309°
NW
306°
NW
300°
WNW
296°
WNW
311°
NW
321°
NW
321°
NW
327°
NNW
327°
NNW

Daily Forecast

Date High Low Precip. Humidity
Today
Sep 24

Clear
71 °F
48 °F
0%
38%
Saturday
Sep 25

Clouds
77 °F
50 °F
0%
34%
Sunday
Sep 26

Clear
75 °F
52 °F
0%
30%
Monday
Sep 27

Clouds
80 °F
54 °F
0%
30%
Tuesday
Sep 28

Clouds
87 °F
61 °F
0%
33%
Wednesday
Sep 29

Clear
83 °F
61 °F
0%
39%
Thursday
Sep 30

Clear
75 °F
53 °F
0%
42%
Friday
Oct 1

Clear
68 °F
48 °F
0%
39%
Saturday
Oct 2

Clear
69 °F
47 °F
0%
39%
Sunday
Oct 3

Clear
73 °F
47 °F
0%
28%
Monday
Oct 4

Clouds
78 °F
51 °F
0%
33%
Tuesday
Oct 5

Clear
79 °F
54 °F
0%
38%
Wednesday
Oct 6

Clouds
81 °F
55 °F
0%
37%
Thursday
Oct 7

Clouds
78 °F
57 °F
0%
41%
Friday
Oct 8

Clear
76 °F
53 °F
0%
43%
Saturday
Oct 9

Clear
82 °F
58 °F
0%
26%

Temperature 8-14 Day Outlook



Precipitation 8-14 Day Outlook




Quick Links
Philpott Lake News
Philpott Lake Photos
Philpott Lake Videos




About Us
Contact Us
Site Map
Search Site
Advertise With Us
   
Philpott.LakesOnline.com
THE PHILPOTT LAKE WEBSITE

Copyright 2021, Lakes Online
Privacy    |    Legal